Regional Weather Roundup
Issued by NWS

Home | Current Version | Previous Version | Graphics & Text | Print | Product List | Glossary On
Versions: 1 2 3 4 5 6 7 8 9 10 11 12 13 14 15 16 17 18 19 20 21 22 23 24 25 26 27 28 29 30 31 32 33 34 35 36 37 38 39 40 41 42 43 44 45 46 47 48 49 50
000
ASUS43 KIND 221709
RWRIN

WEATHER ROUNDUP FOR INDIANA
NATIONAL WEATHER SERVICE INDIANAPOLIS IN
100 PM EDT FRI SEP 22 2017

NOTE: "FAIR" INDICATES FEW OR NO CLOUDS BELOW 12,000 FEET WITH NO
SIGNIFICANT WEATHER AND/OR OBSTRUCTIONS TO VISIBILITY.

* - STATION DOES NOT REPORT WEATHER SUCH AS PRECIPITATION OR FOG.

+ - STATION NOT QUALITY CONTROLLED BY THE NATIONAL WEATHER SERVICE.
    USE DATA WITH CAUTION...ESPECIALLY DEWPOINT AND RELATIVE
    HUMIDITY OBSERVATIONS.

INZ001>003-010>013-019-020-221800-
NORTHWEST INDIANA

CITY           SKY/WX    TMP DP  RH WIND       PRES   REMARKS
GARY /AIRPORT/ MOSUNNY   90  63  40 SW8       30.09F
KNOX *+        SUNNY     88  68  51 W5        30.10F
LA PORTE +     SUNNY     88  68  51 CALM      30.11F
MICHIGAN CITY+ SUNNY     88  66  48 SW6       30.10F
MONTICELLO +   SUNNY     89  68  50 CALM      30.10F
RENSSELAER +   SUNNY     88  54  31 W6        30.10F
VALPARAISO     SUNNY     91  69  48 VRB6      30.11F HX  96

$$

LMZ046-743>745-221800-
SOUTHERN LAKE MICHIGAN

STATION/POSITION TIME  TEMP    WIND        PRES    WAVE
                       AIR SEA DIR/SP/G            HT
                 (UTC) (F)     (DEG/KT/KT) (MB)    (FT)
BURNS HARBOR     1640   81     300/  3/  5 1019.3S
MICHIGAN CITY    1640   87     290/  2/  3   N/A
5NW MICH CITY    1700   80 72   90/  2/  2   N/A     0

$$

INZ004-005-014>016-021>024-221800-
NORTH CENTRAL INDIANA

CITY           SKY/WX    TMP DP  RH WIND       PRES   REMARKS
ELKHART        SUNNY     88  66  48 CALM      30.11F
GOSHEN         MOSUNNY   88  66  48 VRB3      30.11F
LOGANSPORT +   SUNNY     88  68  51 CALM      30.11F
PERU/GRISSOM   SUNNY     87  69  54 CALM      30.11S
SOUTH BEND     SUNNY     87  69  54 CALM      30.12S
WARSAW +       SUNNY     86  68  54 NW6       30.12S

$$

INZ006>009-017-018-025>027-221800-
NORTHEAST INDIANA

CITY           SKY/WX    TMP DP  RH WIND       PRES   REMARKS
AUBURN +       SUNNY     86  68  54 CALM      30.13S
FORT WAYNE     MOSUNNY   89  70  53 CALM      30.12F
HUNTINGTON +   SUNNY     87  68  54 CALM      30.11F
KENDALLVILLE + SUNNY     86  70  58 CALM      30.13F

$$

INZ028-029-035-036-043>045-051>053-221800-
WEST CENTRAL INDIANA

CITY           SKY/WX    TMP DP  RH WIND       PRES   REMARKS
GREENCASTLE +  MOSUNNY   86  66  51 CALM      30.11F
LAFAYETTE      SUNNY     88  69  53 CALM      30.09F
TERRE HAUTE    MOSUNNY   90  66  45 S6        30.09F

$$

INZ030>032-037>040-046>048-054>057-064-065-221800-
CENTRAL INDIANA

CITY           SKY/WX    TMP DP  RH WIND       PRES   REMARKS
ANDERSON       SUNNY     86  70  58 CALM      30.13S
CP ATTERBURY + SUNNY     88  68  51 CALM      30.11F
COLUMBUS       PTSUNNY   84  64  51 CALM      30.11F
FISHERS *+     SUNNY     88  73  62 CALM      30.11F HX  96
FRANKFORT +    CLOUDY    91  70  51 NE3       30.13F HX  96
GREENWOOD *+   SUNNY     91  73  55 CALM      30.11F HX  98
INDIANAPOLIS   MOSUNNY   89  68  49 N3        30.10F
-EAGLE CREEK   SUNNY     88  69  53 VRB5      30.10F
KOKOMO +       MOSUNNY   89  71  55 N7        30.12F HX  95
MT COMFORT *+  SUNNY     86  68  54 N5        30.12F
SHELBYVILLE    MOSUNNY   88  68  51 W3        30.10F
ZIONSVILLE +   SUNNY     84  69  59 CALM      30.12F

$$

INZ033-034-041-042-049-050-058-059-221800-
EAST CENTRAL INDIANA

CITY           SKY/WX    TMP DP  RH WIND       PRES   REMARKS
MUNCIE         SUNNY     89  69  51 CALM      30.11F
RICHMOND +     PTSUNNY   84  68  58 NW3       30.13F

$$

INZ060-061-067>069-081>083-085>088-221800-
SOUTHWEST INDIANA

CITY           SKY/WX    TMP DP  RH WIND       PRES   REMARKS
EVANSVILLE     MOSUNNY   88  67  49 E5        30.08F
WASHINGTON +   MOSUNNY   89  64  43 CALM      30.08F

$$

INZ062-063-066-070>080-084-089>092-221800-
SOUTH CENTRAL AND SOUTHEAST INDIANA

CITY           SKY/WX    TMP DP  RH WIND       PRES   REMARKS
BEDFORD +      MOSUNNY   86  68  54 NE3       30.09F
BLOOMINGTON    SUNNY     88  67  49 SE7       30.10F
MADISON *+     SUNNY     88  66  48 CALM      30.13F
NORTH VERNON + SUNNY     86  70  58 CALM      30.11F
SEYMOUR +      SUNNY     90  68  48 SE6       30.09F

$$




USA.gov is the U.S. government's official web portal to all federal, state and local government web resources and services.